When you browse on this site, cookies collect data to enhance your experience and personalize the content and advertising you see.
Visit our Privacy Policy to learn more. By continuing to use the site, you agree to this use of cookies and data.
  • In Österreich
  • Länderverzeichnis
  • Für 7 Tage
  • Wassertemperatur
  • Satellitenkarten
  • Wetterkarte
  • News
  • Widgets
  • user-avatar
    Anmelden

    Stündliche Wetter Crystal Lake

    Heute, 20 Juni, Donnerstag

    Zeit Temperatur Niederschläge Wind Luftdruck Luftfeuchtigkeit
    00:00 +13°C° 0 mm 4 m/S 729 mmHg 94%
    01:00 +12°C° 0.6 mm 4 m/S 729 mmHg 94%
    02:00 +12°C° 0.6 mm 4 m/S 728 mmHg 94%
    03:00 +12°C° 0.6 mm 4 m/S 728 mmHg 94%
    04:00 +12°C° 0.7 mm 4 m/S 728 mmHg 95%
    05:00 +12°C° 0.7 mm 4 m/S 729 mmHg 95%
    06:00 +13°C° 0 mm 4 m/S 730 mmHg 95%
    07:00 +14°C° 0.1 mm 4 m/S 730 mmHg 94%
    08:00 +14°C° 0.1 mm 5 m/S 730 mmHg 92%
    09:00 +15°C° 0.1 mm 5 m/S 730 mmHg 91%
    10:00 +16°C° 0 mm 5 m/S 731 mmHg 89%
    11:00 +17°C° 0 mm 4 m/S 731 mmHg 87%
    12:00 +17°C° 0 mm 3 m/S 732 mmHg 86%
    13:00 +18°C° 0 mm 3 m/S 732 mmHg 81%
    14:00 +20°C° 0 mm 3 m/S 732 mmHg 77%
    15:00 +21°C° 0 mm 3 m/S 733 mmHg 73%
    16:00 +20°C° 0.1 mm 3 m/S 733 mmHg 75%
    17:00 +20°C° 0.1 mm 3 m/S 733 mmHg 77%
    18:00 +19°C° 0.1 mm 2 m/S 733 mmHg 80%
    19:00 +17°C° 0 mm 2 m/S 733 mmHg 80%
    20:00 +16°C° 0 mm 2 m/S 734 mmHg 80%
    21:00 +14°C° 0 mm 2 m/S 734 mmHg 80%
    22:00 +13°C° 0 mm 1 m/S 734 mmHg 80%
    23:00 +13°C° 0 mm 1 m/S 735 mmHg 79%

    Morgen, 21 Juni, Freitag

    Zeit Temperatur Niederschläge Wind Luftdruck Luftfeuchtigkeit
    00:00 +12°C° 0 mm 1 m/S 735 mmHg 78%
    01:00 +12°C° 0 mm 1 m/S 735 mmHg 79%
    02:00 +12°C° 0 mm 1 m/S 735 mmHg 79%
    03:00 +12°C° 0 mm 1 m/S 736 mmHg 79%
    04:00 +13°C° 0 mm 1 m/S 736 mmHg 79%
    05:00 +13°C° 0 mm 1 m/S 736 mmHg 79%
    06:00 +14°C° 0 mm 2 m/S 737 mmHg 79%
    07:00 +16°C° 0 mm 2 m/S 737 mmHg 73%
    08:00 +18°C° 0 mm 2 m/S 738 mmHg 68%
    09:00 +20°C° 0 mm 2 m/S 738 mmHg 63%
    10:00 +21°C° 0 mm 3 m/S 738 mmHg 60%
    11:00 +21°C° 0 mm 3 m/S 738 mmHg 57%
    12:00 +22°C° 0 mm 4 m/S 738 mmHg 55%
    13:00 +22°C° 0 mm 4 m/S 738 mmHg 56%
    14:00 +21°C° 0 mm 4 m/S 738 mmHg 56%
    15:00 +21°C° 0 mm 4 m/S 738 mmHg 57%
    16:00 +20°C° 0 mm 3 m/S 738 mmHg 61%
    17:00 +19°C° 0 mm 3 m/S 738 mmHg 65%
    18:00 +18°C° 0 mm 2 m/S 738 mmHg 69%
    19:00 +16°C° 0 mm 3 m/S 738 mmHg 66%
    20:00 +14°C° 0 mm 3 m/S 738 mmHg 63%
    21:00 +13°C° 0 mm 3 m/S 738 mmHg 59%
    22:00 +12°C° 0 mm 3 m/S 738 mmHg 61%
    23:00 +12°C° 0 mm 3 m/S 738 mmHg 62%

    übermorgen, 22 Juni, Samstag

    Zeit Temperatur Niederschläge Wind Luftdruck Luftfeuchtigkeit
    00:00 +12°C° 0 mm 3 m/S 738 mmHg 64%
    01:00 +12°C° 0 mm 3 m/S 737 mmHg 64%
    02:00 +12°C° 0 mm 4 m/S 737 mmHg 63%
    03:00 +12°C° 0 mm 4 m/S 737 mmHg 63%
    04:00 +13°C° 0 mm 3 m/S 738 mmHg 69%
    05:00 +14°C° 0 mm 3 m/S 738 mmHg 76%
    06:00 +16°C° 0 mm 2 m/S 739 mmHg 83%
    07:00 +17°C° 0 mm 3 m/S 739 mmHg 81%
    08:00 +19°C° 0 mm 4 m/S 738 mmHg 78%
    09:00 +20°C° 0 mm 5 m/S 738 mmHg 76%
    10:00 +21°C° 0 mm 5 m/S 738 mmHg 75%
    11:00 +22°C° 0 mm 5 m/S 738 mmHg 74%
    12:00 +23°C° 0 mm 5 m/S 739 mmHg 73%
    13:00 +23°C° 0.2 mm 5 m/S 738 mmHg 76%
    14:00 +23°C° 0.2 mm 5 m/S 738 mmHg 80%
    15:00 +22°C° 0.2 mm 4 m/S 738 mmHg 83%
    16:00 +22°C° 0.2 mm 4 m/S 738 mmHg 84%
    17:00 +22°C° 0.2 mm 4 m/S 738 mmHg 85%
    18:00 +22°C° 0.2 mm 4 m/S 738 mmHg 86%
    19:00 +21°C° 0.2 mm 4 m/S 738 mmHg 88%
    20:00 +21°C° 0.2 mm 4 m/S 738 mmHg 90%
    21:00 +20°C° 0.2 mm 4 m/S 737 mmHg 92%
    22:00 +20°C° 0.3 mm 4 m/S 737 mmHg 93%
    23:00 +20°C° 0.3 mm 4 m/S 737 mmHg 95%

    23 Juni, Sonntag

    Zeit Temperatur Niederschläge Wind Luftdruck Luftfeuchtigkeit
    00:00 +20°C° 0.3 mm 4 m/S 736 mmHg 96%
    01:00 +20°C° 1.8 mm 3 m/S 736 mmHg 96%
    02:00 +20°C° 1.8 mm 3 m/S 736 mmHg 97%
    03:00 +20°C° 1.8 mm 3 m/S 735 mmHg 98%
    04:00 +20°C° 2 mm 3 m/S 735 mmHg 98%
    05:00 +21°C° 2 mm 3 m/S 735 mmHg 98%
    06:00 +21°C° 2 mm 3 m/S 735 mmHg 98%
    07:00 +22°C° 0.7 mm 3 m/S 735 mmHg 96%
    08:00 +25°C° 0.7 mm 3 m/S 735 mmHg 93%
    09:00 +26°C° 0.7 mm 3 m/S 735 mmHg 91%
    10:00 +28°C° 0.6 mm 4 m/S 734 mmHg 85%
    11:00 +29°C° 0.6 mm 4 m/S 734 mmHg 79%
    12:00 +32°C° 0.6 mm 5 m/S 734 mmHg 73%
    13:00 +29°C° 1.6 mm 5 m/S 734 mmHg 76%
    14:00 +28°C° 1.6 mm 6 m/S 733 mmHg 79%
    15:00 +26°C° 1.6 mm 6 m/S 733 mmHg 82%
    16:00 +26°C° 0.5 mm 6 m/S 732 mmHg 83%
    17:00 +27°C° 0.5 mm 5 m/S 732 mmHg 84%
    18:00 +27°C° 0.5 mm 4 m/S 732 mmHg 85%
    19:00 +26°C° 0.2 mm 4 m/S 732 mmHg 87%
    20:00 +25°C° 0.2 mm 3 m/S 732 mmHg 90%
    21:00 +24°C° 0.2 mm 3 m/S 732 mmHg 93%
    22:00 +24°C° 0.1 mm 3 m/S 731 mmHg 93%
    23:00 +24°C° 0.1 mm 3 m/S 731 mmHg 93%

    24 Juni, Montag

    Zeit Temperatur Niederschläge Wind Luftdruck Luftfeuchtigkeit
    00:00 +23°C° 0.1 mm 4 m/S 730 mmHg 93%
    01:00 +23°C° 0 mm 4 m/S 730 mmHg 93%
    02:00 +22°C° 0 mm 4 m/S 730 mmHg 93%
    03:00 +22°C° 0 mm 5 m/S 729 mmHg 93%
    04:00 +22°C° 0 mm 6 m/S 729 mmHg 92%
    05:00 +23°C° 0 mm 6 m/S 729 mmHg 91%
    06:00 +23°C° 0 mm 7 m/S 729 mmHg 90%
    07:00 +23°C° 0 mm 7 m/S 729 mmHg 86%
    08:00 +22°C° 0 mm 8 m/S 729 mmHg 81%
    09:00 +22°C° 0 mm 8 m/S 729 mmHg 77%
    10:00 +22°C° 0 mm 8 m/S 729 mmHg 78%
    11:00 +22°C° 0 mm 8 m/S 729 mmHg 79%
    12:00 +22°C° 0 mm 9 m/S 729 mmHg 80%
    13:00 +23°C° 0.3 mm 8 m/S 729 mmHg 78%
    14:00 +23°C° 0.3 mm 8 m/S 729 mmHg 76%
    15:00 +24°C° 0.3 mm 8 m/S 730 mmHg 75%
    16:00 +23°C° 0.4 mm 7 m/S 730 mmHg 78%
    17:00 +22°C° 0.4 mm 7 m/S 730 mmHg 81%
    18:00 +21°C° 0.4 mm 6 m/S 731 mmHg 83%
    19:00 +21°C° 0 mm 6 m/S 731 mmHg 85%
    20:00 +20°C° 0 mm 5 m/S 731 mmHg 87%
    21:00 +19°C° 0 mm 5 m/S 732 mmHg 88%
    22:00 +19°C° 0 mm 5 m/S 732 mmHg 89%
    23:00 +17°C° 0 mm 5 m/S 732 mmHg 90%

    25 Juni, Dienstag

    Zeit Temperatur Niederschläge Wind Luftdruck Luftfeuchtigkeit
    00:00 +17°C° 0 mm 5 m/S 732 mmHg 91%
    01:00 +17°C° 0 mm 5 m/S 732 mmHg 92%
    02:00 +17°C° 0 mm 5 m/S 732 mmHg 93%
    03:00 +17°C° 0 mm 4 m/S 733 mmHg 94%
    04:00 +18°C° 0 mm 4 m/S 733 mmHg 93%
    05:00 +17°C° 0 mm 5 m/S 734 mmHg 92%
    06:00 +19°C° 0 mm 5 m/S 734 mmHg 91%
    07:00 +20°C° 0 mm 5 m/S 735 mmHg 85%
    08:00 +22°C° 0 mm 5 m/S 735 mmHg 80%
    09:00 +25°C° 0 mm 5 m/S 735 mmHg 74%
    10:00 +26°C° 0.1 mm 5 m/S 735 mmHg 70%
    11:00 +27°C° 0.1 mm 6 m/S 736 mmHg 66%
    12:00 +29°C° 0.1 mm 6 m/S 736 mmHg 62%
    13:00 +29°C° 0 mm 6 m/S 736 mmHg 62%
    14:00 +29°C° 0 mm 5 m/S 736 mmHg 62%
    15:00 +29°C° 0 mm 5 m/S 736 mmHg 63%
    16:00 +29°C° 0.1 mm 5 m/S 736 mmHg 68%
    17:00 +28°C° 0.1 mm 4 m/S 736 mmHg 73%
    18:00 +28°C° 0.1 mm 3 m/S 736 mmHg 79%
    19:00 +26°C° 0.6 mm 3 m/S 736 mmHg 83%
    20:00 +25°C° 0.6 mm 3 m/S 736 mmHg 87%
    21:00 +24°C° 0.6 mm 3 m/S 736 mmHg 91%
    22:00 +24°C° 1 mm 3 m/S 736 mmHg 92%
    23:00 +22°C° 1 mm 3 m/S 736 mmHg 93%
    Mehr zeigen